Showing default

ANSER-LS, 62644

Orbit data source: Space-Track

ANSER-LS, 62644 is a payload satellite owned by INTA (ES) in SSO that was launched on Tue, 14 Jan 2025 UTC via an FALCON 9 launch vehicle from the Air Force Western Test Range (AFWTR). Payload-class satellites include a variety of spacecraft equipped with specific instruments for various scientific and technological missions. These include communications satellites like Starlink; space stations such as the ISS; scientific satellites like the Hubble; Earth observation satellites from companies like Planet Labs, Umbra, and HawkEye 360; GPS; miniature CubeSats for education and research; and military/defense satellites.

Loading next visibility...
Identifier
62644, 2025-009AM
Orbit
SSO
Country
Flag of ESES / SPN
Related business
Manufacturer
INTA
Mission
Operational Civil Imaging
Bus & Motor
CUBESAT 3U, Unknown motor
Mass
4 kg wet, 4 kg dry
Launch date (UTC)
2025-01-14 (1 year ago)
Launch vehicle
FALCON 9
Launch site
Air Force Western Test Range (AFWTR)
Object type
Payload
Rocket body
Debris
Shape & HBR
Box + 2 Pan, 0.2 m
Radar Cross Section
0.035 m², Medium (>0.1 m² and < 1m²)

Expand to show TLE details & history
Last TLE update: 7 hours ago

TLE from 7 hours ago
0 ANSER-LS
1 62644U 25009AM  26151.22004966  .00045623  00000-0  95945-3 0  9997
2 62644  97.4027 237.5093 0001859  34.0746 326.0622 15.45176876 76586
Epoch: 2026-05-31T05:16Z
TLE epoch observation values (Epoch: 2026-05-31T05:16:52.290Z)
Latitude
-0.00002°
Longitude
-90.43343°
Altitude
432.933 km
Speed
7.652 km/s
True Right ascension
15h 50m 02s
True Declination
0° 00' 00"
Sunlit
Object was in full shadow at epoch
Visualization orbit readout
Latitude
Unknown
Longitude
Unknown
Altitude
Unknown
Speed
Unknown
Apparent Right ascension
Unknown
Apparent Declination
Unknown
Sunlit
N/A
Visualization observer readout
Local Sidereal Time
21:29:04
Azimuth
Unknown
Elevation
Unknown
Doppler factor
Unknown
Orbital elements
Apogee altitude
429.056 km
Perigee altitude
426.525 km
Semi-major axis
6,805.928 km
Eccentricity
0.00019
Inclination
97.4027°
RAAN
237.5093°
Arg. of periapsis
34.0746°
True anomaly
326.0503°
Mean anomaly
326.0622°
Eccentric anomaly
326.05625°
Mean motion
3.86556 °/min
Orbital period
93.13 mins
BSTAR
0.00095945
Loading maneuver chart data...
Computing Atmospheric mass density...
Loading historical data...
Loading historical data...
Loading historical data...
Loading historical data...
Loading historical data...
Loading historical data...
Loading historical data...

Documentation

Showing up to 5 results
|